This demonstration page uses our WeatherBlox Daily Observations layout. Learn more.

Left ArrowRight Arrow

Hourly Observations for August 17, 2022

Temp ( °F °C ) Dew Point ( °F °C ) Humidity (%) Winds ( mph kmh ) Pressure ( in mb ) Visibility ( mi km ) Precip ( " mm )
1:31 am 01:31 Cloudy with Mist and Fog 65 18.3 64 17.8 97 97 N 3 6 30.12 1020 6 10 0.00 0.00
1:53 am 01:53 Cloudy 65 18.3 63 17.2 93 93 N 5 7 30.15 1021 7 11 0.00 0.00
2:53 am 02:53 Mostly Cloudy with Mist and Fog 64 17.8 63 17.2 96 96 N 3 6 30.15 1021 4 6 0.00 0.00
3:53 am 03:53 Mostly Cloudy with Mist and Fog 62 16.7 61 16.1 96 96 Calm 30.16 1021 3 5 0.00 0.00
4:51 am 04:51 Clear with Mist and Fog 61 16 57 14 88 88 Calm 30.15 1021 3 4 0.00 0.00
4:53 am 04:53 Clear with Mist and Fog 60 15.6 58 14.4 93 93 Calm 30.16 1022 3 4 0.00 0.00
5:12 am 05:12 Partly Cloudy with Mist and Fog 59 15 58 14.4 96 96 Calm 30.16 1021 2 3 0.00 0.00
5:17 am 05:17 Mostly Clear with Mist and Fog 59 15 58 14.4 96 96 Calm 30.16 1021 1 1 0.00 0.00
5:27 am 05:27 Mostly Clear with Fog 59 15 58 14.4 96 96 N 3 6 30.16 1021 0 0 0.00 0.00
5:53 am 05:53 Mostly Clear with Fog 57 13.9 57 13.9 100 100 Calm 30.17 1022 0 0 0.00 0.00
6:53 am 06:53 Partly Cloudy with Fog 57 13.9 57 13.9 100 100 NNE 3 6 30.19 1022 0 0 0.00 0.00
7:05 am 07:05 Partly Cloudy with Fog 57 13.9 57 13.9 100 100 Calm 30.19 1022 0 0 0.00 0.00
7:34 am 07:34 Partly Cloudy with Mist and Fog 59 15 58 14.4 96 96 Calm 30.19 1022 1 2 0.00 0.00
7:48 am 07:48 Partly Cloudy with Mist and Fog 61 16 59 15 94 94 NNE 3 6 30.19 1022 3 4 0.00 0.00
7:53 am 07:53 Partly Cloudy with Mist and Fog 60 15.6 60 15.6 100 100 NNE 3 6 30.20 1023 3 4 0.00 0.00
8:08 am 08:08 Sunny with Mist and Fog 61 16.1 60 15.6 97 97 NE 5 7 30.18 1022 3 5 0.00 0.00
8:53 am 08:53 Sunny with Mist and Fog 66 18.9 62 16.7 87 87 NE 5 7 30.19 1023 6 10 0.00 0.00
9:53 am 09:53 Sunny 70 21.1 63 17.2 78 78 E 3 6 30.19 1022 10 16 0.00 0.00
10:53 am 10:53 Partly Cloudy 74 23.3 61 16.1 64 64 VRB 5 7 30.18 1022 10 16 0.00 0.00
11:53 am 11:53 Partly Cloudy 76 24.4 60 15.6 58 58 ENE 6 9 30.17 1022 10 16 0.00 0.00
12:53 pm 12:53 Mostly Cloudy 79 26.1 60 15.6 52 52 VRB 3 6 30.16 1021 10 16 0.00 0.00
1:53 pm 13:53 Mostly Cloudy 77 25 59 15 54 54 E 7 11 30.15 1021 10 16 0.00 0.00
2:53 pm 14:53 Mostly Cloudy 78 25.6 59 15 52 52 VRB 3 6 30.15 1021 10 16 0.00 0.00
3:53 pm 15:53 Cloudy 77 25 58 14.4 52 52 E 3 6 30.15 1021 10 16 0.00 0.00
4:53 pm 16:53 Mostly Cloudy 80 26.7 58 14.4 47 47 E 7 11 30.13 1020 10 16 0.00 0.00
5:53 pm 17:53 Cloudy 77 25 58 14.4 52 52 E 8 13 30.13 1020 10 16 0.00 0.00
6:53 pm 18:53 Partly Cloudy 78 25.6 58 14.4 50 50 ESE 9 15 30.11 1020 10 16 0.00 0.00
7:53 pm 19:53 Sunny 75 23.9 60 15.6 60 60 E 6 9 30.10 1019 10 16 0.00 0.00
8:53 pm 20:53 Clear 70 21.1 59 15 68 68 ESE 3 6 30.11 1020 10 16 0.00 0.00
9:53 pm 21:53 Clear 66 18.9 59 15 78 78 Calm 30.13 1020 10 16 0.00 0.00
10:53 pm 22:53 Clear 65 18.3 59 15 81 81 Calm 30.11 1020 10 16 0.00 0.00
11:53 pm 23:53 Clear 63 17.2 58 14.4 84 84 Calm 30.10 1019 10 16 0.00 0.00

Powered by AerisWeather